{"data":{"norad_id":52687,"intl_designator":"2022-053AH","name":"STARLINK-3981","alt_names":[],"object_type":"PAYLOAD","status":"ACTIVE","operator":null,"country":"US","launch_date":"2022-05-18","launch_site_code":"AFETR","launch_vehicle":null,"mission":null,"orbit_class":"UNKNOWN","rcs_meters":null,"size_class":null,"mass_kg":null,"dimensions":null,"purposes":["comms"],"wikipedia_slug":null,"has_3d_model":false,"image_url":null,"decayed_at":null,"tle_current":{"epoch":"2026-05-24T18:27:10.405152Z","epoch_age_seconds":101909,"freshness":"FRESH","line1":"1 52687U 22053AH  26144.76887043  .00002215  00000+0  15725-3 0  9992","line2":"2 52687  53.2140 162.5892 0000821  75.0363 285.0721 15.08831027222605","mean_motion":15.08831027,"eccentricity":8.21e-5,"inclination_deg":53.214,"raan_deg":162.5892,"arg_perigee_deg":75.0363,"mean_anomaly_deg":285.0721,"bstar":0.00015725,"rev_number":22260,"period_min":95.438122243757,"perigee_km":539.20285573963,"apogee_km":540.33877620301,"semimajor_km":6917.9078159713,"source":"CELESTRAK","updated_at":"2026-05-25T13:38:17.235752Z"}}}